Regional Weather Roundup
Issued by NWS Kansas City/Pleasant Hill, MO

Home | Current Version | Previous Version | Graphics & Text | Print | Product List | Glossary Off
Versions: 1 2 3 4 5 6 7 8 9 10 11 12 13 14 15 16 17 18 19 20 21 22 23 24 25 26 27 28 29 30 31 32 33 34 35 36 37 38 39 40 41 42 43 44 45 46 47 48 49 50

484
ASUS43 KEAX 220510
RWREAX

WEATHER ROUNDUP FOR EASTERN KANSAS AND NORTHWEST MISSOURI
NATIONAL WEATHER SERVICE KANSAS CITY/PLEASANT HILL MO
1200 AM CDT TUE AUG 22 2017

KSZ040-057-103>105-MOZ028-029-037-043-220600-
...KANSAS CITY METROPOLITAN AREA...

CITY           SKY/WX    TMP DP  RH WIND       PRES   REMARKS
K.C. INTL      TSTM      70  69  97 S14       29.97F
K.C. DOWNTOWN  TSTM      71  71 100 CALM      29.98F FOG
LEES SUMMIT    TSTM      69  69 100 MISG      30.04R FOG
OLATHE - IXD   TSTM      69  69 100 NE15      29.98F FOG
OLATHE - OJC   TSTM      68  68 100 NE7       30.01F FOG
LAWRENCE       TSTM      71  71 100 VRB3      29.98R

$$

MOZ001>008-011>017-020>025-030>033-038>040-044>046-053-054-220600-
...NORTHERN AND CENTRAL MISSOURI...

CITY           SKY/WX    TMP DP  RH WIND       PRES   REMARKS
ST. JOSEPH     CLOUDY    70  70 100 S10       29.95F
WARRENSBURG    TSTM      68  66  94 NW12G17   30.01S
WHITEMAN AFB   NOT AVBL
CLINTON        CLOUDY    79  75  89 S7        29.98F
SEDALIA        CLOUDY    76  70  82 NW13G21   30.02R
WARSAW         NOT AVBL
CHILLICOTHE      N/A     71  71 100 CALM      30.00R
KIRKSVILLE     TSTM      68  32  26 NE6       30.00F

$$

MOZ041-047>049-056>058-063>065-088>090-097-220600-
...EASTERN AND SOUTHERN MISSOURI...

CITY           SKY/WX    TMP DP  RH WIND       PRES   REMARKS
ST. LOUIS INTL CLOUDY    83  74  74 S10       29.99S
SPIRIT OF STL  CLOUDY    82  73  74 S12       29.96F
COLUMBIA       CLOUDY    77  74  90 S12       29.98F
JEFFERSON CITY CLOUDY    80  76  87 S6        29.97F
ROLLA          CLEAR     77  72  84 S10       30.03F
OSAGE BEACH    PTCLDY    79  73  82 S8        30.02S
SPRINGFIELD    CLEAR     77  74  90 S9        30.06S
BRANSON          N/A     75  72  88 S3        30.10R
JOPLIN         CLOUDY    83  76  79 S15       30.03S HX  91
WEST PLAINS    CLEAR     78  72  81 S6        30.10R

$$

IAZ060-094-KSZ022-034>040-054-083-096-NEZ052-066-093-220600-
...KANSAS...SOUTHEAST NEBRASKA AND IOWA...

CITY           SKY/WX    TMP DP  RH WIND       PRES   REMARKS
TOPEKA         TSTM      73  73 100 W6        29.98R FOG
MANHATTAN      PTCLDY    74  73  97 E6        29.93F
CHANUTE        CLOUDY    82  74  76 S16G23    29.99F
WICHITA        CLOUDY    79  72  79 S10       29.97S
OMAHA          CLOUDY    67  63  87 S9        29.97F
LINCOLN        CLOUDY    67  65  93 NE8       30.01R
FALLS CITY     CLOUDY    71  69  93 S3        29.94R
LAMONI         RAIN      66  64  93 E7        30.01F FOG
DES MOINES     LGT RAIN  66  64  93 S14       29.93F

$$





USA.gov is the U.S. government's official web portal to all federal, state and local government web resources and services.